Location: Unspecified
(34.6209°N, 0.0000°E)
Time: 10:27:38
(UTC+00:00)

CUTE-I - Visible Passes

Search period start: 04 April 2026 00:00
Search period end: 14 April 2026 00:00
Orbit: 803 x 819 km, 98.7° (Epoch: 28 March)

Date Brightness Start Highest point End Pass type
(mag) Time Alt. Az. Time Alt. Az. Time Alt. Az.
5 Apr ? 05:10:03 10° NE 05:13:17 16° E 05:16:31 10° SE visible
7 Apr ? 19:01:39 10° WSW 19:04:01 13° W 19:06:25 10° WNW visible
10 Apr ? 04:55:05 10° E 04:55:43 10° E 04:56:20 10° E visible
11 Apr ? 19:08:42 10° WSW 19:10:08 11° W 19:11:35 10° WNW visible
